Total_Precipitation_Accumulation
2.69 2.85 2.64 2.76 2.57 2.70 3.04 3.36 3.38 3.57 3.83 3.79 3.33 3.08 3.17 3.17 2.92 2.78 2.98 3.27 3.33 3.26 3.50 3.64 3.33 3.16 3.10 2.75 2.46 2.33 2.14 1.99 1.77 1.49 1.32 1.22 1.09 0.93 0.78 0.74 0.64 0.60 0.55
2.96 3.07 2.90 2.87 2.60 2.62 2.92 3.26 3.34 3.66 3.76 3.84 3.33 3.01 3.02 3.05 2.75 2.54 2.63 3.17 3.26 3.13 3.26 3.60 3.72 3.65 3.48 3.18 2.88 2.62 2.36 2.14 1.96 1.69 1.41 1.25 1.17 1.10 1.05 0.90 0.79 0.73 0.65
3.21 3.38 3.28 2.91 2.68 2.76 2.96 2.97 3.13 3.63 3.52 3.49 3.40 3.29 3.21 3.04 2.78 2.71 2.63 2.83 2.75 2.86 3.11 3.28 3.57 3.83 3.90 3.80 3.60 3.21 2.87 2.45 2.09 1.74 1.43 1.25 1.19 1.12 1.10 1.04 0.97 0.93 0.81
2.83 3.10 2.87 2.49 2.58 2.78 2.98 3.02 3.00 3.37 3.55 3.60 3.67 3.52 3.34 3.13 2.75 2.65 2.64 2.62 2.61 2.36 2.65 2.99 3.36 3.66 4.08 4.37 4.45 4.29 3.86 3.12 2.46 1.99 1.62 1.45 1.35 1.19 1.04 1.03 1.08 1.06 0.92
2.01 2.34 2.30 2.24 2.27 2.53 2.61 2.33 2.56 2.90 3.14 3.30 3.09 3.02 2.69 2.49 2.39 2.25 2.23 2.15 2.35 2.49 2.61 2.63 3.00 3.30 3.94 4.80 5.34 5.30 4.81 3.96 3.11 2.58 2.23 1.97 1.79 1.52 1.23 1.09 1.11 1.09 0.99
1.86 2.11 2.13 1.98 1.94 2.16 2.25 2.37 2.69 2.78 2.68 2.76 2.42 2.42 2.39 2.18 2.17 2.14 1.96 1.96 2.10 2.05 2.27 2.51 2.85 2.70 3.25 4.17 4.93 5.23 5.10 4.66 3.82 3.13 2.78 2.61 2.48 2.08 1.58 1.35 1.27 1.19 1.11
2.02 2.29 2.11 2.14 1.97 2.01 2.07 2.12 2.36 2.47 2.27 2.43 2.78 2.60 2.29 2.04 2.03 1.95 1.87 1.97 1.98 2.04 2.20 2.57 2.84 2.92 2.83 2.90 3.36 4.13 4.78 5.03 4.77 4.06 3.41 3.01 2.88 2.48 1.92 1.67 1.48 1.37 1.36
1.99 1.92 2.09 1.93 1.84 2.06 2.05 2.12 2.33 2.33 2.10 2.24 2.68 2.84 2.57 2.49 2.07 1.53 1.74 1.86 1.91 2.16 2.21 2.20 2.44 2.91 2.94 3.13 2.56 2.92 4.06 4.79 5.25 5.22 4.51 3.72 3.31 2.85 2.34 2.12 1.89 1.70 1.62
1.67 1.74 1.76 1.71 1.81 1.72 1.92 2.07 2.18 2.40 2.39 2.15 2.14 2.56 2.53 2.47 2.24 1.74 1.51 1.61 1.89 2.17 2.13 2.15 2.18 2.50 2.80 3.20 3.08 2.64 2.93 3.51 4.53 5.48 5.52 4.64 3.64 2.96 2.66 2.56 2.46 2.22 2.01
1.66 1.66 1.64 1.76 1.78 1.65 1.93 1.69 1.84 2.19 2.39 2.20 2.17 2.07 2.12 2.28 2.33 2.16 1.85 1.58 1.73 1.88 2.03 2.00 2.12 2.43 2.69 2.96 3.04 2.48 2.14 2.38 3.31 4.54 5.35 5.31 4.52 3.57 3.05 3.06 3.25 3.08 2.70
1.69 1.49 1.60 1.79 1.84 1.71 1.75 1.76 1.99 2.01 2.08 2.11 2.08 2.03 2.18 2.23 2.05 2.09 2.09 1.93 1.82 1.55 1.69 1.96 2.16 2.32 2.50 2.77 3.04 2.69 2.48 2.30 2.37 2.92 3.64 4.32 4.67 4.32 3.87 3.79 4.09 4.26 4.04
1.62 1.50 1.61 1.90 1.90 1.86 1.81 1.79 1.82 1.87 2.05 2.17 2.10 1.98 2.08 2.19 2.17 2.26 2.04 1.98 2.01 1.76 1.87 2.14 2.22 2.28 2.27 2.47 2.51 2.48 2.39 2.33 2.27 2.23 2.44 2.89 3.50 3.90 4.00 4.20 4.61 4.96 5.04
1.42 1.50 1.59 1.82 1.84 1.86 1.78 1.95 1.98 1.90 2.04 2.10 2.06 2.02 1.95 1.90 2.03 2.21 2.24 2.06 2.03 1.94 2.17 2.16 2.17 2.19 2.13 2.41 2.56 2.49 2.14 2.14 2.01 1.90 1.93 2.11 2.40 2.89 3.38 3.76 4.26 4.74 5.07
1.27 1.32 1.45 1.52 1.60 1.67 1.65 2.05 1.94 1.97 2.06 1.96 1.85 2.19 2.08 1.81 1.98 2.12 2.32 2.53 2.38 2.24 2.32 2.26 2.23 2.21 2.36 2.49 2.55 2.45 2.12 2.15 1.96 1.78 1.66 1.63 1.71 1.93 2.31 2.66 3.01 3.38 3.79
1.34 1.38 1.45 1.66 1.80 1.85 1.89 2.13 2.05 2.01 2.14 1.97 1.96 2.14 2.08 2.00 1.98 1.95 2.30 2.63 2.78 2.58 2.45 2.37 2.15 2.04 2.13 2.25 2.31 1.99 1.84 1.95 1.86 1.73 1.60 1.52 1.50 1.57 1.70 1.85 1.93 2.02 2.18
1.50 1.62 1.69 1.84 1.96 1.91 1.91 2.08 2.03 2.11 2.19 2.09 2.09 2.14 2.08 2.05 2.13 2.06 2.19 2.44 2.66 2.84 2.65 2.19 2.04 1.94 1.93 1.75 1.85 1.66 1.67 1.86 1.74 1.58 1.52 1.50 1.49 1.48 1.46 1.50 1.55 1.58 1.62
1.61 1.69 1.79 1.92 1.94 1.99 2.09 2.18 2.00 2.08 2.19 2.35 2.25 2.23 2.28 2.40 2.37 2.28 2.37 2.43 2.57 2.83 2.77 2.28 2.19 2.20 2.04 1.83 1.76 1.67 1.62 1.71 1.73 1.82 1.65 1.53 1.43 1.35 1.33 1.32 1.35 1.42 1.47
1.89 1.85 1.92 1.97 1.84 1.88 2.08 2.14 2.11 2.12 2.15 2.18 2.37 2.60 2.53 2.58 2.53 2.38 2.47 2.43 2.49 2.78 2.69 2.44 2.45 2.47 2.40 2.18 2.03 1.83 1.64 1.63 1.73 1.93 1.68 1.53 1.45 1.38 1.35 1.34 1.32 1.30 1.32
2.13 2.21 2.20 2.03 1.94 1.93 1.99 2.07 2.17 2.17 2.18 2.25 2.41 2.49 2.52 2.70 2.57 2.47 2.42 2.40 2.48 2.64 2.74 2.53 2.47 2.64 2.54 2.29 2.13 1.87 1.66 1.74 1.57 1.68 1.65 1.57 1.54 1.47 1.41 1.34 1.31 1.29 1.25
2.15 2.29 2.25 2.18 2.13 2.01 1.90 1.87 1.91 1.98 2.14 2.30 2.35 2.28 2.37 2.60 2.65 2.64 2.47 2.45 2.58 2.68 2.70 2.61 2.51 2.62 2.65 2.58 2.40 2.18 2.06 1.89 1.72 1.59 1.65 1.55 1.53 1.48 1.40 1.31 1.26 1.25 1.27
2.11 2.25 2.30 2.33 2.29 2.11 1.86 1.89 2.02 2.01 2.18 2.20 2.13 2.03 2.03 2.27 2.49 2.57 2.32 2.33 2.47 2.49 2.49 2.51 2.50 2.56 2.61 2.76 2.63 2.36 2.12 1.97 1.74 1.56 1.57 1.45 1.40 1.32 1.35 1.36 1.29 1.21 1.14
2.52 2.55 2.46 2.39 2.29 1.93 2.04 2.08 2.07 2.06 2.17 2.19 2.13 2.03 1.92 1.91 1.92 2.06 2.15 2.28 2.43 2.40 2.39 2.55 2.70 2.75 2.74 2.76 2.77 2.56 2.28 2.04 1.84 1.64 1.69 1.67 1.58 1.50 1.36 1.26 1.30 1.22 1.14
2.90 2.89 2.75 2.56 2.38 2.30 2.23 2.00 1.95 1.82 1.85 1.90 1.97 1.95 1.68 1.53 1.64 1.56 1.75 1.92 2.04 2.12 2.16 2.33 2.48 2.58 2.72 2.87 2.93 2.66 2.45 2.24 1.98 1.80 1.78 1.64 1.53 1.51 1.41 1.38 1.47 1.30 1.23
2.80 2.82 2.73 2.58 2.45 2.36 2.24 1.92 1.86 1.61 1.60 1.62 1.67 1.68 1.65 1.58 1.57 1.64 1.65 1.62 1.59 1.66 1.81 1.83 1.93 2.19 2.46 2.69 2.84 2.73 2.63 2.32 2.00 1.77 1.71 1.59 1.44 1.41 1.35 1.39 1.52 1.42 1.29
2.53 2.42 2.35 2.34 2.30 2.33 2.30 1.99 1.81 1.57 1.63 1.63 1.64 1.66 1.69 1.61 1.76 1.69 1.62 1.63 1.64 1.65 1.70 1.76 1.76 1.92 2.18 2.36 2.48 2.55 2.51 2.36 2.07 1.82 1.74 1.74 1.55 1.48 1.42 1.30 1.31 1.40 1.30
2.45 2.37 2.23 2.22 2.19 2.17 2.23 1.88 1.71 1.55 1.63 1.65 1.70 1.70 1.69 1.59 1.62 1.52 1.45 1.56 1.55 1.58 1.67 1.67 1.65 1.65 1.73 2.05 2.39 2.24 2.27 2.32 2.10 1.79 1.54 1.61 1.60 1.63 1.53 1.22 1.09 1.10 1.09